This is the latest recevied weather packets stored in our database for station/object W4DHW-4. If no packets are shown the sender has not sent any weather packets the latest 10 day(s).
| Time | Temp. | Humidity | Pressure | Rain* | Wind** | Luminosity | Snow |
|---|---|---|---|---|---|---|---|
| 1777905714 | 16.67° C | 50% | 1016.6 hPa | 0 mm | - | 618 W/m² | - |
| 1777905410 | 16.67° C | 50% | 1016.4 hPa | 0 mm | - | 704 W/m² | - |
| 1777905109 | 16.67° C | 50% | 1016.5 hPa | 0 mm | - | 462 W/m² | - |
| 1777904805 | 16.11° C | 52% | 1016.3 hPa | 0 mm | - | 742 W/m² | - |
| 1777904502 | 15.56° C | 51% | 1016.6 hPa | 0 mm | - | 751 W/m² | - |
| 1777904198 | 15° C | 53% | 1016.5 hPa | 0 mm | - | 439 W/m² | - |
| 1777903896 | 15° C | 52% | 1016.3 hPa | 0 mm | - | 296 W/m² | - |
| 1777903593 | 15° C | 52% | 1016.4 hPa | 0 mm | - | 275 W/m² | - |
| 1777903288 | 15° C | 52% | 1016.3 hPa | 0 mm | - | 322 W/m² | - |
| 1777902986 | 15° C | 52% | 1016.2 hPa | 0 mm | - | 376 W/m² | - |
| 1777902682 | 15.56° C | 53% | 1016.5 hPa | 0 mm | - | 689 W/m² | - |
| 1777902380 | 15° C | 54% | 1016.3 hPa | 0 mm | - | 612 W/m² | - |
| 1777902076 | 15° C | 54% | 1016.7 hPa | 0 mm | - | 599 W/m² | - |
| 1777901775 | 14.44° C | 56% | 1016.5 hPa | 0 mm | - | 339 W/m² | - |
| 1777901471 | 13.89° C | 56% | 1016.5 hPa | 0 mm | - | 463 W/m² | - |
| 1777901169 | 13.33° C | 63% | 1016.7 hPa | 0 mm | - | 435 W/m² | - |
| 1777900867 | 13.89° C | 63% | 1016.8 hPa | 0 mm | - | 474 W/m² | - |
| 1777900564 | 12.78° C | 64% | 1016.9 hPa | 0 mm | - | 509 W/m² | - |
| 1777900260 | 12.78° C | 65% | 1016.7 hPa | 0 mm | - | 459 W/m² | - |
| 1777899956 | 12.78° C | 65% | 1016.5 hPa | 0 mm | - | 424 W/m² | - |
| 1777899654 | 12.78° C | 66% | 1016.8 hPa | 0 mm | - | 377 W/m² | - |
| 1777899351 | 11.67° C | 68% | 1016.9 hPa | 0 mm | - | 364 W/m² | - |
| 1777899049 | 12.22° C | 67% | 1016.8 hPa | 0 mm | - | 354 W/m² | - |
| 1777898745 | 12.22° C | 68% | 1016.7 hPa | 0 mm | - | 339 W/m² | - |
| 1777898443 | 11.67° C | 69% | 1016.6 hPa | 0 mm | - | 321 W/m² | - |
* Rain latest hour (hover to see other rain measurements)
** Current wind speed in m/s (hover to see current wind gust speed)